Home   Weather   Salvador   Past weeks
Flag for Brazil

Past Weather in Salvador, Bahia, Brazil — Yesterday and Last 2 Weeks

Now
73 °F

Scattered showers. Partly cloudy.


Feels Like: 72 °F
Forecast: 80 / 75 °F
Wind: 7 mph from East

Location: Salvador Aeroporto

Current Time: Jul 22, 2019 at 4:43:35 am

Latest Report: Jul 22, 2019 at 4:00 am


Visibility: 6 mi

Pressure: N/A

Humidity: 89%

Dew Point: 70 °F

Location of SalvadorLocation

Past Weather in Salvador — Graph

°F

Salvador Temperature Yesterday

Maximum temperature yesterday: 81 °F (at 1:00 pm)
Minimum temperature yesterday: 72 °F (at 3:00 am)
Average temperature yesterday: 76 °F

High & Low Weather Summary for the Past Weeks

 TemperatureHumidityPressure
High82 °F (Jul 7, 9:00 am)100% (Jul 17, 6:00 am)30.21 "Hg (Jul 17, 6:00 am)
Low68 °F (Jul 16, 5:00 am)48% (Jul 16, 11:00 am)29.98 "Hg (Jul 7, 4:00 am)
Average77 °F78%30.08 "Hg
* Reported Jul 7 3:00 am — Jul 22 3:00 am, Salvador. Weather by CustomWeather, © 2019

Note: Actual official high and low records may vary slightly from our data, if they occured in-between our weather recording intervals... More about our weather records

Advertising

Salvador Weather History for the Previous 24 Hours

Scroll right to see more
 ConditionsComfort  
Time TempWeatherWind HumidityBarometerVisibility
3:00 am
Mon, Jul 22
73 °FLight rain. Partly cloudy.20 mph89%30.09 "HgN/A
2:00 am75 °FPassing clouds.12 mph83%30.09 "HgN/A
1:00 am75 °FPassing clouds.14 mph83%30.12 "HgN/A
12:00 am75 °FPassing clouds.13 mph83%30.12 "HgN/A
11:00 pm
Sun, Jul 21
77 °FPassing clouds.13 mph79%30.12 "HgN/A
10:00 pm77 °FPassing clouds.14 mph74%30.12 "HgN/A
9:00 pm77 °FPartly cloudy.10 mph79%30.12 "Hg6 mi
8:00 pm77 °FPassing clouds.12 mph74%30.12 "HgN/A
7:00 pm77 °FScattered showers. Passing clouds.10 mph74%30.12 "HgN/A
6:00 pm77 °FScattered showers. Passing clouds.12 mph74%30.09 "HgN/A
5:00 pm77 °FScattered showers. Scattered clouds.14 mph74%30.09 "HgN/A
4:00 pm79 °FScattered showers. Scattered clouds.13 mph74%30.09 "HgN/A
3:00 pm81 °FScattered showers. Scattered clouds.14 mph70%30.09 "HgN/A
2:00 pm81 °FScattered showers. Scattered clouds.15 mph70%30.09 "HgN/A
1:00 pm81 °FScattered clouds.15 mph66%30.09 "HgN/A
12:00 pm79 °FScattered clouds.13 mph74%30.12 "HgN/A
11:00 am79 °FBroken clouds.16 mph70%30.15 "HgN/A
10:00 am79 °FBroken clouds.14 mph74%30.15 "HgN/A
9:00 am73 °FScattered showers. Partly sunny.3 mph94%N/A5 mi
8:00 am73 °FLight rain. Broken clouds.17 mph89%30.12 "Hg4 mi
7:25 am72 °FRain showers. Fog.16 mph94%30.09 "Hg3 mi
7:00 am73 °FScattered showers. Broken clouds.13 mph94%30.09 "Hg5 mi
6:00 am73 °FLight rain. Broken clouds.14 mph94%30.07 "Hg4 mi
5:00 am72 °FLight rain. Passing clouds.10 mph94%30.07 "Hg4 mi
4:00 am73 °FPassing clouds.10 mph94%30.07 "HgN/A
Weather by CustomWeather, © 2019

See weather overview